DELTA 1 DEB, 7072

Orbit data source: Space-Track

DELTA 1 DEB, 7072 is space debris in SSO originally from a launch on Tue, 06 Nov 1973 UTC launched from the Air Force Western Test Range (AFWTR). Debris objects in space refer to the collection of defunct objects orbiting the Earth. Examples of debris include non-operational satellites, rocket bodies, and fragments generated from explosions, collisions, or faulty payload assembly.

Loading next visibility...
Identifier
7072, 1973-086BQ
Orbit
SSO
Country
Flag of USUS
Related business
Manufacturer
Unknown
Mission
Spacecraft
Bus & Motor
Unknown
Mass
Unknown
Launch date (UTC)
1973-11-06 (53 years ago)
Launch vehicle
Unknown
Launch site
Air Force Western Test Range (AFWTR)
Object type
Payload
Rocket body
Debris
Shape & HBR
Unknown shape, 0.2 m
Radar Cross Section
Medium (>0.1 m² and <1 m²)

Expand to show TLE details & history
Last TLE update: 10 hours ago

TLE from 10 hours ago
0 DELTA 1 DEB
1 07072U 73086BQ  26265.76379958 -.00000020  00000-0  17248-3 0  9993
2 07072 101.8510 221.3705 0011164  27.4647  89.0509 12.42685648397430
Epoch: 2026-09-22T18:19Z
TLE epoch observation values (Epoch: 2026-09-22T18:19:52.283Z)
Latitude
61.10667°
Longitude
147.01083°
Altitude
1,505.351 km
Speed
7.118 km/s
True Right ascension
04h 14m 24s
True Declination
60° 58' 29"
Sunlit
Object was in daylight at epoch
Visualization orbit readout
Latitude
Unknown
Longitude
Unknown
Altitude
Unknown
Speed
Unknown
Apparent Right ascension
Unknown
Apparent Declination
Unknown
Sunlit
N/A
Visualization observer readout
Local Sidereal Time
21:09:48
Azimuth
Unknown
Elevation
Unknown
Doppler factor
Unknown
Orbital elements
Apogee altitude
1,501.588 km
Perigee altitude
1,484.014 km
Semi-major axis
7,870.938 km
Eccentricity
0.00112
Inclination
101.851°
RAAN
221.3705°
Arg. of periapsis
27.4647°
True anomaly
89.17882°
Mean anomaly
89.0509°
Eccentric anomaly
89.11486°
Mean motion
3.10816 °/min
Orbital period
115.82 mins
BSTAR
0.00017248
Loading maneuver chart data...
Computing Atmospheric mass density...
Loading historical data...
Loading historical data...
Loading historical data...
Loading historical data...
Loading historical data...
Loading historical data...
Loading historical data...

Documentation

Showing up to 5 results
|